Date String (YYYY-MM-DD hh:mm:ss) UTC,Instrument flags,Ambient pressure (hPa),Sample flow (lpm),Bypass flow (lpm),Sample temperature (°C),Ambient temperature (°C),ASC tube jacket temperature (°C),LED temperature (°C),Box temperature (°C),Sample RH (%),Span deviation,Mass concentration (μg/m³),Mass concentration (μg/m³),Mass concentration (μg/m³)
DateTimeUTC,F1_M11,P_M11,Q1_M11,Q2_M11,T1_M11,T2_M11,T3_M11,T4_M11,T5_M11,U1_M11,ZSPAN_M11,X2_M11,X0_M11,X1_M11
2023-04-12 02:00:00,,0828.4,5.00,0.00,30.2,28.8,00.0,38.4,31.7,06.6,0000.0,0003.10,0010.93,0001.84
2023-04-12 02:01:00,,0828.4,5.00,0.00,30.2,28.9,00.0,38.4,31.8,06.5,0000.0,0003.12,0011.23,0001.85
2023-04-12 02:02:00,,0828.4,5.00,0.00,30.2,28.9,00.0,38.4,31.8,06.6,0000.0,0003.09,0010.67,0001.85
2023-04-12 02:03:00,,0828.3,5.00,0.00,30.2,28.9,00.0,38.4,31.8,06.5,0000.0,0003.10,0010.37,0001.86
2023-04-12 02:04:00,,0828.3,5.00,0.00,30.2,28.5,00.0,38.4,31.8,06.4,0000.0,0003.10,0010.79,0001.88
2023-04-12 02:05:00,,0828.3,5.01,0.00,30.2,26.6,00.0,38.3,31.5,06.4,0000.0,0003.08,0010.10,0001.86
2023-04-12 02:06:00,,0828.4,5.01,0.00,30.1,25.9,00.0,38.3,31.3,06.4,0000.0,0003.01,0009.38,0001.86
2023-04-12 02:07:00,,0828.4,5.00,0.00,30.0,26.0,00.0,38.3,31.2,06.4,0000.0,0002.96,0008.72,0001.85
2023-04-12 02:08:00,,0828.3,5.00,0.00,29.9,26.3,00.0,38.3,31.1,06.4,0000.0,0002.97,0009.19,0001.86
2023-04-12 02:09:00,,0828.4,5.01,0.00,29.9,26.6,00.0,38.3,31.2,06.5,0000.0,0003.05,0008.74,0001.86
2023-04-12 02:10:00,,0828.4,4.99,0.00,29.8,26.9,00.0,38.3,31.2,06.6,0000.0,0003.06,0008.34,0001.86
2023-04-12 02:11:00,,0828.4,5.00,0.00,29.8,27.2,00.0,38.2,31.3,06.6,0000.0,0003.06,0007.89,0001.85
2023-04-12 02:12:00,,0828.4,5.00,0.00,29.8,27.5,00.0,38.2,31.3,06.6,0000.0,0003.00,0007.37,0001.86
2023-04-12 02:13:00,,0828.4,5.00,0.00,29.8,27.7,00.0,38.2,31.3,06.7,0000.0,0003.03,0007.33,0001.85
2023-04-12 02:14:00,,0828.4,5.00,0.00,29.8,27.8,00.0,38.2,31.4,06.7,0000.0,0003.05,0007.36,0001.85
2023-04-12 02:15:00,,0828.4,5.00,0.00,29.9,28.0,00.0,38.2,31.4,06.8,0000.0,0003.01,0007.39,0001.84
2023-04-12 02:16:00,,0828.4,5.00,0.00,29.9,28.1,00.0,38.2,31.4,06.5,0000.0,0003.02,0007.80,0001.86
2023-04-12 02:17:00,,0828.4,5.00,0.00,29.9,28.2,00.0,38.2,31.5,06.4,0000.0,0003.03,0007.86,0001.87
2023-04-12 02:18:00,,0828.4,5.00,0.00,29.9,28.3,00.0,38.2,31.5,06.4,0000.0,0003.03,0007.88,0001.87
2023-04-12 02:19:00,,0828.4,5.00,0.00,29.9,28.3,00.0,38.2,31.5,06.4,0000.0,0003.05,0007.49,0001.88
2023-04-12 02:20:00,,0828.4,5.00,0.00,29.9,28.4,00.0,38.3,31.5,06.4,0000.0,0003.00,0007.52,0001.88
2023-04-12 02:21:00,,0828.5,5.00,0.00,30.0,28.4,00.0,38.3,31.5,06.4,0000.0,0003.03,0007.50,0001.89
2023-04-12 02:22:00,,0828.5,5.00,0.00,30.0,28.5,00.0,38.3,31.5,06.4,0000.0,0003.04,0007.78,0001.90
2023-04-12 02:23:00,,0828.5,5.00,0.00,30.0,28.5,00.0,38.3,31.5,06.4,0000.0,0003.06,0007.88,0001.91
2023-04-12 02:24:00,,0828.6,5.00,0.00,30.0,28.5,00.0,38.3,31.5,06.4,0000.0,0002.99,0008.19,0001.91
2023-04-12 02:25:00,,0828.6,5.00,0.00,30.0,28.6,00.0,38.3,31.6,06.4,0000.0,0002.94,0008.74,0001.90
2023-04-12 02:26:00,,0828.5,4.99,0.00,30.0,28.6,00.0,38.3,31.6,06.4,0000.0,0003.00,0008.43,0001.90
2023-04-12 02:27:00,,0828.6,5.00,0.00,30.0,28.6,00.0,38.3,31.6,06.4,0000.0,0002.98,0008.08,0001.88
2023-04-12 02:28:00,,0828.6,5.00,0.00,30.1,28.7,00.0,38.3,31.6,06.4,0000.0,0002.94,0007.98,0001.88
2023-04-12 02:29:00,,0828.6,5.00,0.00,30.1,28.7,00.0,38.4,31.6,06.4,0000.0,0002.97,0008.05,0001.87
2023-04-12 02:30:00,,0828.6,5.00,0.00,30.1,28.7,00.0,38.4,31.7,06.4,0000.0,0002.94,0007.98,0001.85
2023-04-12 02:31:00,,0828.6,5.01,0.00,30.1,28.7,00.0,38.4,31.6,06.5,0000.0,0002.88,0007.77,0001.84
2023-04-12 02:32:00,,0828.6,5.00,0.00,30.1,28.8,00.0,38.4,31.6,06.6,0000.0,0002.85,0007.74,0001.83
2023-04-12 02:33:00,,0828.6,5.00,0.00,30.1,28.8,00.0,38.4,31.7,06.6,0000.0,0002.81,0007.45,0001.80
2023-04-12 02:34:00,,0828.6,5.00,0.00,30.1,28.8,00.0,38.4,31.7,06.5,0000.0,0002.82,0007.41,0001.79
2023-04-12 02:35:00,,0828.6,5.00,0.00,30.2,28.8,00.0,38.4,31.8,06.5,0000.0,0002.88,0007.17,0001.78
2023-04-12 02:36:00,,0828.6,4.99,0.00,30.2,28.8,00.0,38.5,31.8,06.6,0000.0,0002.89,0006.24,0001.78
2023-04-12 02:37:00,,0828.6,5.00,0.00,30.2,28.8,00.0,38.5,31.8,06.6,0000.0,0002.86,0006.62,0001.77
2023-04-12 02:38:00,,0828.6,5.00,0.00,30.2,28.8,00.0,38.5,31.8,06.5,0000.0,0002.97,0007.48,0001.79
2023-04-12 02:39:00,,0828.6,4.99,0.00,30.2,28.9,00.0,38.5,31.8,06.5,0000.0,0003.05,0007.59,0001.78
2023-04-12 02:40:00,,0828.6,5.00,0.00,30.2,28.9,00.0,38.5,31.8,06.4,0000.0,0003.06,0007.61,0001.78
2023-04-12 02:41:00,,0828.6,5.00,0.00,30.3,28.9,00.0,38.5,31.8,06.4,0000.0,0003.04,0007.97,0001.78
2023-04-12 02:42:00,,0828.6,5.00,0.00,30.3,28.9,00.0,38.5,31.9,06.4,0000.0,0003.07,0008.04,0001.78
2023-04-12 02:43:00,,0828.6,5.00,0.00,30.3,28.9,00.0,38.6,31.9,06.4,0000.0,0003.12,0008.13,0001.79
2023-04-12 02:44:00,,0828.7,5.00,0.00,30.3,28.9,00.0,38.6,31.9,06.4,0000.0,0003.12,0008.18,0001.79
2023-04-12 02:45:00,,0828.6,5.00,0.00,30.3,28.9,00.0,38.6,31.9,06.4,0000.0,0003.10,0008.10,0001.79
2023-04-12 02:46:00,,0828.7,5.00,0.00,30.3,28.9,00.0,38.6,31.9,06.4,0000.0,0003.06,0008.16,0001.79
2023-04-12 02:47:00,,0828.7,5.00,0.00,30.4,28.9,00.0,38.6,31.9,06.4,0000.0,0003.08,0008.31,0001.78
2023-04-12 02:48:00,,0828.7,5.00,0.00,30.4,28.9,00.0,38.6,31.9,06.3,0000.0,0003.02,0007.82,0001.79
2023-04-12 02:49:00,,0828.7,5.00,0.00,30.4,28.9,00.0,38.6,31.9,06.5,0000.0,0002.98,0007.18,0001.79
2023-04-12 02:50:00,,0828.7,5.00,0.00,30.4,28.9,00.0,38.7,31.9,06.8,0000.0,0002.91,0006.93,0001.78
2023-04-12 02:51:00,,0828.7,5.00,0.00,30.4,28.9,00.0,38.7,31.9,06.4,0000.0,0002.86,0006.88,0001.77
2023-04-12 02:52:00,,0828.7,5.00,0.00,30.4,28.9,00.0,38.7,31.9,06.3,0000.0,0002.90,0006.08,0001.78
2023-04-12 02:53:00,,0828.8,5.00,0.00,30.4,29.0,00.0,38.7,32.0,06.2,0000.0,0002.98,0006.25,0001.79
2023-04-12 02:54:00,,0828.7,5.00,0.00,30.4,29.0,00.0,38.7,31.9,06.2,0000.0,0002.90,0006.10,0001.79
2023-04-12 02:55:00,,0828.7,5.00,0.00,30.4,29.0,00.0,38.7,32.0,06.3,0000.0,0002.88,0005.98,0001.79
2023-04-12 02:56:00,,0828.7,4.99,0.00,30.4,29.0,00.0,38.7,32.0,06.3,0000.0,0002.95,0006.21,0001.79
2023-04-12 02:57:00,,0828.7,4.99,0.00,30.4,29.0,00.0,38.7,32.0,06.3,0000.0,0002.96,0006.01,0001.79
2023-04-12 02:58:00,,0828.7,5.00,0.00,30.4,29.0,00.0,38.7,32.0,06.4,0000.0,0002.94,0005.56,0001.79
2023-04-12 02:59:00,,0828.7,5.00,0.00,30.4,29.0,00.0,38.8,32.0,06.4,0000.0,0003.01,0005.76,0001.81
